Simultaneous Nadir Overpasses (SNOs) Predictions

Prediction of SNOs between GOES-15 and LANDSAT-8 Satellite Orbit:

Table of predicted SNOs for the next 14.0 days since TLE Epoch: 7/2/2022
Index Date Time (GOES-15) GOES-15 Lat,Lon LANDSAT-8 Lat,Lon Distance(km) Time Diff (sec)
1 07/02/2022 18:30:51 -0.16,-128.50 -0.86,-125.05 391.68 80
2 07/03/2022 06:54:55 0.12,-128.46 -0.26,-130.23 201.50 80
3 07/05/2022 06:40:04 0.14,-128.45 0.39,-127.28 133.91 80
4 07/05/2022 19:03:59 -0.10,-128.48 0.74,-132.43 448.46 80
5 07/07/2022 06:27:53 0.14,-128.44 1.04,-124.32 469.07 80
6 07/07/2022 18:51:48 -0.11,-128.47 0.09,-129.47 113.38 80
7 07/09/2022 18:36:56 -0.12,-128.45 -0.51,-126.51 220.94 80
8 07/10/2022 07:01:00 0.08,-128.42 -0.61,-131.69 372.12 80
9 07/12/2022 06:48:48 0.08,-128.39 -0.00,-128.73 39.07 80
10 07/14/2022 06:33:57 0.10,-128.35 0.67,-125.78 293.26 80
11 07/14/2022 18:57:52 -0.06,-128.37 0.46,-130.92 290.35 80
